• In Belarus
  • List of Countries
  • For 7 days
  • Water Temperature
  • Weather Map
  • Weather Widgets
  • user-avatar
    Login

    Hourly Weather Algabas

    Today, 25 January, Saturday

    Time Temperature Precipitation Wind Pressure Humidity
    00:00 +2°C° 0.3 mm 2 mps 694 mmHg 81%
    01:00 +3°C° 0.3 mm 2 mps 695 mmHg 82%
    02:00 +3°C° 0.3 mm 2 mps 696 mmHg 84%
    03:00 +2°C° 0.1 mm 2 mps 696 mmHg 84%
    04:00 +2°C° 0.1 mm 2 mps 696 mmHg 83%
    05:00 +2°C° 0.1 mm 2 mps 697 mmHg 83%
    06:00 +3°C° 0.1 mm 1 mps 697 mmHg 85%
    07:00 +3°C° 0.1 mm 1 mps 697 mmHg 87%
    08:00 +2°C° 0.1 mm 1 mps 697 mmHg 89%
    09:00 +3°C° 0.2 mm 1 mps 697 mmHg 91%
    10:00 +3°C° 0.2 mm 1 mps 697 mmHg 94%
    11:00 +4°C° 0 mm 1 mps 696 mmHg 96%
    12:00 +4°C° 0.2 mm 1 mps 696 mmHg 96%
    13:00 +3°C° 0.2 mm 1 mps 695 mmHg 97%
    14:00 +3°C° 0.2 mm 1 mps 695 mmHg 97%
    15:00 +3°C° 0.2 mm 1 mps 695 mmHg 96%
    16:00 +2°C° 0.2 mm 1 mps 695 mmHg 95%
    17:00 +2°C° 0.2 mm 1 mps 696 mmHg 95%
    18:00 +1°C° 0.2 mm 1 mps 696 mmHg 93%
    19:00 +1°C° 0.2 mm 1 mps 696 mmHg 92%
    20:00 +1°C° 0.2 mm 1 mps 696 mmHg 91%
    21:00 +1°C° 0.1 mm 1 mps 696 mmHg 91%
    22:00 +1°C° 0.1 mm 1 mps 696 mmHg 90%
    23:00 +1°C° 0.1 mm 1 mps 696 mmHg 90%

    Tomorrow, 26 January, Sunday

    Time Temperature Precipitation Wind Pressure Humidity
    00:00 0°C° 0 mm 1 mps 696 mmHg 89%
    01:00 0°C° 0 mm 1 mps 696 mmHg 89%
    02:00 0°C° 0 mm 1 mps 697 mmHg 88%
    03:00 0°C° 0.4 mm 1 mps 697 mmHg 90%
    04:00 -3°C° 0.4 mm 2 mps 697 mmHg 91%
    05:00 -3°C° 0.4 mm 2 mps 698 mmHg 93%
    06:00 -1°C° 0.4 mm 1 mps 698 mmHg 93%
    07:00 -1°C° 0.4 mm 1 mps 698 mmHg 93%
    08:00 -2°C° 0.4 mm 1 mps 698 mmHg 93%
    09:00 -1°C° 0 mm 1 mps 698 mmHg 92%
    10:00 -1°C° 0 mm 1 mps 698 mmHg 92%
    11:00 0°C° 0 mm 1 mps 698 mmHg 91%
    12:00 0°C° 0 mm 1 mps 697 mmHg 91%
    13:00 0°C° 0 mm 1 mps 697 mmHg 90%
    14:00 0°C° 0 mm 1 mps 696 mmHg 90%
    15:00 -1°C° 0 mm 1 mps 696 mmHg 90%
    16:00 -1°C° 0 mm 1 mps 697 mmHg 90%
    17:00 -2°C° 0 mm 1 mps 697 mmHg 90%
    18:00 -3°C° 0 mm 1 mps 697 mmHg 87%
    19:00 -3°C° 0 mm 1 mps 697 mmHg 85%
    20:00 -3°C° 0 mm 1 mps 697 mmHg 82%
    21:00 -3°C° 0 mm 1 mps 697 mmHg 81%
    22:00 -3°C° 0 mm 1 mps 697 mmHg 80%
    23:00 -3°C° 0 mm 1 mps 697 mmHg 80%

    Day after tomorrow, 27 January, Monday

    Time Temperature Precipitation Wind Pressure Humidity
    00:00 -5°C° 0 mm 2 mps 697 mmHg 80%
    01:00 -5°C° 0 mm 2 mps 696 mmHg 80%
    02:00 -4°C° 0 mm 2 mps 696 mmHg 80%
    03:00 -5°C° 0 mm 2 mps 696 mmHg 79%
    04:00 -5°C° 0 mm 2 mps 696 mmHg 78%
    05:00 -5°C° 0 mm 2 mps 696 mmHg 76%
    06:00 -5°C° 0 mm 2 mps 696 mmHg 76%
    07:00 -5°C° 0 mm 2 mps 696 mmHg 76%
    08:00 -5°C° 0 mm 2 mps 696 mmHg 76%
    09:00 -2°C° 0 mm 1 mps 695 mmHg 77%
    10:00 -1°C° 0 mm 1 mps 695 mmHg 78%
    11:00 0°C° 0 mm 1 mps 694 mmHg 79%
    12:00 0°C° 0 mm 1 mps 694 mmHg 80%
    13:00 +1°C° 0 mm 1 mps 693 mmHg 80%
    14:00 +1°C° 0 mm 1 mps 693 mmHg 80%
    15:00 0°C° 0 mm 1 mps 693 mmHg 79%
    16:00 -1°C° 0 mm 1 mps 694 mmHg 78%
    17:00 -2°C° 0 mm 1 mps 694 mmHg 76%
    18:00 -4°C° 0 mm 2 mps 695 mmHg 77%
    19:00 -4°C° 0 mm 2 mps 696 mmHg 77%
    20:00 -5°C° 0 mm 3 mps 697 mmHg 78%
    21:00 -4°C° 0.1 mm 2 mps 697 mmHg 83%
    22:00 -4°C° 0.1 mm 2 mps 698 mmHg 87%
    23:00 -4°C° 0.1 mm 2 mps 699 mmHg 92%

    28 January, Tuesday

    Time Temperature Precipitation Wind Pressure Humidity
    00:00 -4°C° 0.2 mm 2 mps 699 mmHg 92%
    01:00 -4°C° 0.2 mm 2 mps 700 mmHg 92%
    02:00 -4°C° 0.2 mm 2 mps 700 mmHg 92%
    03:00 -4°C° 0.1 mm 2 mps 701 mmHg 90%
    04:00 -4°C° 0.1 mm 2 mps 701 mmHg 88%
    05:00 -4°C° 0.1 mm 2 mps 702 mmHg 86%
    06:00 -5°C° 0 mm 2 mps 702 mmHg 84%
    07:00 -3°C° 0 mm 1 mps 702 mmHg 81%
    08:00 -3°C° 0 mm 1 mps 702 mmHg 78%
    09:00 -2°C° 0 mm 1 mps 701 mmHg 79%
    10:00 -1°C° 0 mm 1 mps 701 mmHg 80%
    11:00 0°C° 0 mm 1 mps 701 mmHg 82%
    12:00 0°C° 0 mm 1 mps 701 mmHg 83%
    13:00 +1°C° 0 mm 1 mps 701 mmHg 85%
    14:00 +1°C° 0 mm 1 mps 700 mmHg 87%
    15:00 -1°C° 0 mm 1 mps 701 mmHg 86%
    16:00 -2°C° 0 mm 1 mps 701 mmHg 85%
    17:00 -3°C° 0 mm 1 mps 701 mmHg 84%
    18:00 -4°C° 0 mm 1 mps 701 mmHg 79%
    19:00 -4°C° 0 mm 1 mps 702 mmHg 75%
    20:00 -6°C° 0 mm 1 mps 702 mmHg 70%
    21:00 -6°C° 0 mm 1 mps 702 mmHg 69%
    22:00 -6°C° 0 mm 1 mps 702 mmHg 68%
    23:00 -6°C° 0 mm 1 mps 703 mmHg 67%

    29 January, Wednesday

    Time Temperature Precipitation Wind Pressure Humidity
    00:00 -6°C° 0 mm 1 mps 703 mmHg 65%
    01:00 -6°C° 0 mm 1 mps 703 mmHg 64%
    02:00 -6°C° 0 mm 1 mps 703 mmHg 62%
    03:00 -6°C° 0 mm 1 mps 703 mmHg 60%
    04:00 -7°C° 0 mm 1 mps 702 mmHg 59%
    05:00 -7°C° 0 mm 1 mps 702 mmHg 58%
    06:00 -7°C° 0 mm 1 mps 702 mmHg 59%
    07:00 -7°C° 0 mm 1 mps 702 mmHg 61%
    08:00 -6°C° 0 mm 0 mps 702 mmHg 62%
    09:00 -4°C° 0 mm 1 mps 702 mmHg 66%
    10:00 -3°C° 0 mm 1 mps 702 mmHg 69%
    11:00 -1°C° 0 mm 1 mps 701 mmHg 73%
    12:00 -1°C° 0 mm 1 mps 701 mmHg 77%
    13:00 -1°C° 0 mm 1 mps 700 mmHg 81%
    14:00 -1°C° 0 mm 1 mps 700 mmHg 85%
    15:00 -2°C° 0 mm 1 mps 700 mmHg 86%
    16:00 -4°C° 0 mm 1 mps 700 mmHg 87%
    17:00 -6°C° 0 mm 0 mps 700 mmHg 88%
    18:00 -6°C° 0 mm 0 mps 700 mmHg 84%
    19:00 -6°C° 0 mm 1 mps 700 mmHg 80%
    20:00 -6°C° 0 mm 1 mps 701 mmHg 76%
    21:00 -7°C° 0 mm 1 mps 701 mmHg 76%
    22:00 -7°C° 0 mm 1 mps 701 mmHg 76%
    23:00 -7°C° 0 mm 0 mps 701 mmHg 76%

    30 January, Thursday

    Time Temperature Precipitation Wind Pressure Humidity
    00:00 -7°C° 0 mm 1 mps 701 mmHg 76%
    01:00 -7°C° 0 mm 1 mps 701 mmHg 76%
    02:00 -7°C° 0 mm 1 mps 701 mmHg 76%
    03:00 -7°C° 0 mm 1 mps 701 mmHg 76%
    04:00 -7°C° 0 mm 1 mps 701 mmHg 76%
    05:00 -7°C° 0 mm 1 mps 701 mmHg 76%
    06:00 -7°C° 0 mm 1 mps 701 mmHg 76%
    07:00 -7°C° 0 mm 1 mps 702 mmHg 76%
    08:00 -7°C° 0 mm 1 mps 702 mmHg 77%
    09:00 -6°C° 0 mm 1 mps 702 mmHg 78%
    10:00 -4°C° 0 mm 1 mps 702 mmHg 80%
    11:00 -3°C° 0 mm 1 mps 702 mmHg 82%
    12:00 -2°C° 0 mm 1 mps 701 mmHg 84%
    13:00 -2°C° 0 mm 1 mps 701 mmHg 85%
    14:00 -2°C° 0 mm 1 mps 701 mmHg 87%
    15:00 -3°C° 0 mm 1 mps 701 mmHg 87%
    16:00 -3°C° 0 mm 1 mps 701 mmHg 88%
    17:00 -4°C° 0 mm 1 mps 701 mmHg 89%
    18:00 -6°C° 0 mm 1 mps 701 mmHg 86%
    19:00 -6°C° 0 mm 1 mps 701 mmHg 83%
    20:00 -7°C° 0 mm 1 mps 701 mmHg 80%
    21:00 -7°C° 0 mm 1 mps 701 mmHg 80%
    22:00 -7°C° 0 mm 1 mps 701 mmHg 79%
    23:00 -7°C° 0 mm 1 mps 701 mmHg 79%
    Show more